• en Belgique
  • Liste des pays
  • À 7 jours
  • Température de l'eau
  • Carte satellitaire
  • Carte météo
  • Widgets météo
  • user-avatar
    Se connecter

    Météo par heure à Erevan

    Ce jour, 23 Novembre, Jeudi

    Heure Température Précipitation Vent Pression Humidité
    00:00 +3°C° 0 mm 1 m/s 684 mmHg 69%
    01:00 +3°C° 0 mm 1 m/s 685 mmHg 67%
    02:00 +3°C° 0 mm 1 m/s 685 mmHg 66%
    03:00 +2°C° 0 mm 1 m/s 685 mmHg 65%
    04:00 +1°C° 0,1 mm 2 m/s 685 mmHg 65%
    05:00 +1°C° 0,1 mm 2 m/s 685 mmHg 66%
    06:00 +1°C° 0,1 mm 2 m/s 686 mmHg 66%
    07:00 +1°C° 0 mm 2 m/s 686 mmHg 64%
    08:00 +1°C° 0 mm 3 m/s 686 mmHg 63%
    09:00 +2°C° 0 mm 3 m/s 685 mmHg 59%
    10:00 +3°C° 0,1 mm 3 m/s 685 mmHg 54%
    11:00 +4°C° 0,1 mm 3 m/s 685 mmHg 50%
    12:00 +4°C° 0,1 mm 3 m/s 685 mmHg 46%
    13:00 +4°C° 0,1 mm 3 m/s 685 mmHg 46%
    14:00 +4°C° 0,1 mm 3 m/s 685 mmHg 46%
    15:00 +4°C° 0,1 mm 3 m/s 685 mmHg 46%
    16:00 +4°C° 0,1 mm 2 m/s 686 mmHg 49%
    17:00 +4°C° 0,1 mm 2 m/s 686 mmHg 52%
    18:00 +3°C° 0,1 mm 2 m/s 687 mmHg 56%
    19:00 +3°C° 0,2 mm 2 m/s 687 mmHg 58%
    20:00 +2°C° 0,2 mm 2 m/s 687 mmHg 60%
    21:00 +3°C° 0,2 mm 1 m/s 688 mmHg 62%
    22:00 +3°C° 0,2 mm 1 m/s 688 mmHg 64%
    23:00 +2°C° 0,2 mm 1 m/s 688 mmHg 66%

    Demain, 24 Novembre, Vendredi

    Heure Température Précipitation Vent Pression Humidité
    00:00 +2°C° 0,2 mm 1 m/s 688 mmHg 68%
    01:00 +2°C° 0,1 mm 1 m/s 688 mmHg 69%
    02:00 +2°C° 0,1 mm 1 m/s 688 mmHg 70%
    03:00 +2°C° 0,1 mm 1 m/s 688 mmHg 70%
    04:00 +1°C° 0,1 mm 1 m/s 688 mmHg 71%
    05:00 +1°C° 0,1 mm 1 m/s 688 mmHg 71%
    06:00 +1°C° 0,1 mm 1 m/s 688 mmHg 71%
    07:00 +1°C° 0,1 mm 1 m/s 689 mmHg 69%
    08:00 +1°C° 0,1 mm 1 m/s 689 mmHg 66%
    09:00 +1°C° 0,1 mm 1 m/s 689 mmHg 64%
    10:00 +2°C° 0 mm 1 m/s 689 mmHg 60%
    11:00 +3°C° 0 mm 1 m/s 689 mmHg 56%
    12:00 +2°C° 0 mm 2 m/s 689 mmHg 52%
    13:00 +3°C° 0 mm 1 m/s 689 mmHg 50%
    14:00 +3°C° 0 mm 1 m/s 689 mmHg 49%
    15:00 +3°C° 0 mm 1 m/s 689 mmHg 48%
    16:00 +2°C° 0 mm 1 m/s 689 mmHg 50%
    17:00 +2°C° 0 mm 1 m/s 690 mmHg 53%
    18:00 -1°C° 0 mm 2 m/s 690 mmHg 55%
    19:00 -2°C° 0 mm 2 m/s 691 mmHg 55%
    20:00 -2°C° 0 mm 2 m/s 691 mmHg 56%
    21:00 -2°C° 0 mm 2 m/s 691 mmHg 56%
    22:00 -2°C° 0 mm 2 m/s 691 mmHg 57%
    23:00 -3°C° 0 mm 2 m/s 691 mmHg 57%

    Après-demain, 25 Novembre, Samedi

    Heure Température Précipitation Vent Pression Humidité
    00:00 -3°C° 0 mm 2 m/s 691 mmHg 58%
    01:00 -3°C° 0 mm 2 m/s 692 mmHg 58%
    02:00 -3°C° 0 mm 2 m/s 692 mmHg 58%
    03:00 -3°C° 0 mm 2 m/s 692 mmHg 59%
    04:00 -3°C° 0 mm 2 m/s 693 mmHg 59%
    05:00 -3°C° 0 mm 2 m/s 693 mmHg 60%
    06:00 -3°C° 0 mm 2 m/s 693 mmHg 60%
    07:00 -3°C° 0 mm 2 m/s 694 mmHg 58%
    08:00 -2°C° 0 mm 2 m/s 695 mmHg 57%
    09:00 -1°C° 0 mm 2 m/s 695 mmHg 55%
    10:00 +1°C° 0 mm 2 m/s 695 mmHg 52%
    11:00 +2°C° 0 mm 2 m/s 695 mmHg 49%
    12:00 +2°C° 0 mm 2 m/s 695 mmHg 47%
    13:00 +3°C° 0 mm 2 m/s 695 mmHg 46%
    14:00 +4°C° 0 mm 1 m/s 695 mmHg 45%
    15:00 +4°C° 0 mm 1 m/s 695 mmHg 43%
    16:00 +2°C° 0 mm 2 m/s 695 mmHg 46%
    17:00 +1°C° 0 mm 2 m/s 696 mmHg 48%
    18:00 -2°C° 0 mm 2 m/s 696 mmHg 51%
    19:00 -2°C° 0 mm 2 m/s 697 mmHg 51%
    20:00 -2°C° 0 mm 2 m/s 697 mmHg 51%
    21:00 0°C° 0 mm 1 m/s 697 mmHg 51%
    22:00 -1°C° 0 mm 1 m/s 697 mmHg 51%
    23:00 -1°C° 0 mm 1 m/s 697 mmHg 52%

    26 Novembre, Dimanche

    Heure Température Précipitation Vent Pression Humidité
    00:00 -1°C° 0 mm 1 m/s 697 mmHg 52%
    01:00 -1°C° 0 mm 1 m/s 697 mmHg 51%
    02:00 -1°C° 0 mm 1 m/s 697 mmHg 51%
    03:00 -1°C° 0 mm 1 m/s 697 mmHg 51%
    04:00 -1°C° 0 mm 1 m/s 696 mmHg 51%
    05:00 -1°C° 0 mm 1 m/s 696 mmHg 50%
    06:00 -1°C° 0 mm 1 m/s 696 mmHg 50%
    07:00 0°C° 0 mm 1 m/s 696 mmHg 47%
    08:00 +1°C° 0 mm 1 m/s 696 mmHg 44%
    09:00 +3°C° 0 mm 1 m/s 697 mmHg 41%
    10:00 +4°C° 0 mm 1 m/s 696 mmHg 39%
    11:00 +5°C° 0 mm 1 m/s 695 mmHg 37%
    12:00 +5°C° 0 mm 2 m/s 695 mmHg 35%
    13:00 +5°C° 0 mm 2 m/s 694 mmHg 34%
    14:00 +6°C° 0 mm 2 m/s 694 mmHg 34%
    15:00 +6°C° 0 mm 2 m/s 693 mmHg 34%
    16:00 +5°C° 0 mm 1 m/s 693 mmHg 36%
    17:00 +4°C° 0 mm 1 m/s 693 mmHg 38%
    18:00 +2°C° 0 mm 1 m/s 693 mmHg 40%
    19:00 +2°C° 0 mm 1 m/s 694 mmHg 39%
    20:00 +2°C° 0 mm 1 m/s 694 mmHg 38%
    21:00 +1°C° 0 mm 1 m/s 694 mmHg 37%
    22:00 +1°C° 0 mm 1 m/s 694 mmHg 36%
    23:00 +1°C° 0 mm 1 m/s 694 mmHg 36%

    27 Novembre, Lundi

    Heure Température Précipitation Vent Pression Humidité
    00:00 +1°C° 0 mm 1 m/s 694 mmHg 36%
    01:00 +1°C° 0 mm 1 m/s 693 mmHg 36%
    02:00 +1°C° 0 mm 1 m/s 693 mmHg 36%
    03:00 0°C° 0 mm 1 m/s 693 mmHg 35%
    04:00 0°C° 0 mm 1 m/s 693 mmHg 36%
    05:00 0°C° 0 mm 1 m/s 693 mmHg 36%
    06:00 0°C° 0 mm 1 m/s 693 mmHg 36%
    07:00 +2°C° 0 mm 1 m/s 693 mmHg 35%
    08:00 +3°C° 0 mm 1 m/s 693 mmHg 33%
    09:00 +5°C° 0 mm 1 m/s 693 mmHg 32%
    10:00 +6°C° 0 mm 1 m/s 693 mmHg 31%
    11:00 +7°C° 0 mm 1 m/s 692 mmHg 31%
    12:00 +8°C° 0 mm 1 m/s 691 mmHg 30%
    13:00 +8°C° 0 mm 1 m/s 691 mmHg 30%
    14:00 +8°C° 0 mm 1 m/s 691 mmHg 30%
    15:00 +9°C° 0 mm 1 m/s 690 mmHg 30%
    16:00 +7°C° 0 mm 1 m/s 691 mmHg 32%
    17:00 +5°C° 0 mm 1 m/s 691 mmHg 34%
    18:00 +4°C° 0 mm 1 m/s 691 mmHg 35%
    19:00 +4°C° 0 mm 1 m/s 691 mmHg 36%
    20:00 +3°C° 0 mm 1 m/s 691 mmHg 37%
    21:00 +3°C° 0 mm 1 m/s 691 mmHg 38%
    22:00 +3°C° 0 mm 1 m/s 691 mmHg 39%
    23:00 +3°C° 0 mm 1 m/s 691 mmHg 40%

    28 Novembre, Mardi

    Heure Température Précipitation Vent Pression Humidité
    00:00 +3°C° 0 mm 1 m/s 691 mmHg 42%
    01:00 +3°C° 0 mm 1 m/s 691 mmHg 43%
    02:00 +2°C° 0 mm 1 m/s 691 mmHg 44%
    03:00 +2°C° 0 mm 1 m/s 690 mmHg 46%
    04:00 +2°C° 0 mm 1 m/s 690 mmHg 47%
    05:00 +2°C° 0 mm 1 m/s 690 mmHg 48%
    06:00 +2°C° 0 mm 1 m/s 690 mmHg 50%
    07:00 +3°C° 0 mm 1 m/s 691 mmHg 48%
    08:00 +4°C° 0 mm 1 m/s 691 mmHg 47%
    09:00 +6°C° 0 mm 1 m/s 691 mmHg 46%
    10:00 +7°C° 0 mm 1 m/s 690 mmHg 45%
    11:00 +7°C° 0 mm 2 m/s 690 mmHg 45%
    12:00 +8°C° 0 mm 2 m/s 689 mmHg 45%
    13:00 +8°C° 0 mm 2 m/s 689 mmHg 46%
    14:00 +8°C° 0 mm 2 m/s 689 mmHg 47%
    15:00 +8°C° 0 mm 2 m/s 689 mmHg 47%
    16:00 +7°C° 0 mm 2 m/s 689 mmHg 50%
    17:00 +6°C° 0 mm 2 m/s 689 mmHg 53%
    18:00 +4°C° 0 mm 2 m/s 690 mmHg 56%
    19:00 +4°C° 0 mm 2 m/s 690 mmHg 57%
    20:00 +5°C° 0 mm 1 m/s 690 mmHg 58%
    21:00 +4°C° 0 mm 1 m/s 690 mmHg 59%
    22:00 +4°C° 0 mm 1 m/s 690 mmHg 60%
    23:00 +4°C° 0 mm 1 m/s 690 mmHg 61%
    Voir plus